Content
SEND FEEDBACK

Daily
Averages
Monthly
Summary
China

HAIKOU, CHINA


Home > Asia > China
Elevation: 49 feet     Latitude: 20 02N     Longitude: 110 21E

WEATHER
 
SELECT A DAY
Number of Records: 113,800;   Date Range: 12/16/03 - 11/24/14
 
SHARE

PRINT THIS DATA

[ ← Previous Day ]
WEATHER ALMANAC - JANUARY 31, 2013
[ Next Day → ]
[ °C ]   °F
Weather ElementAverageHighLow
Temperature69.8 °F79 °F (2:00 pm)59 °F (6:00 am)
Dewpoint64.6 °F69.8 °F (10:00 am)59 °F (6:00 am)
Humidity83.7 %100 % (1:00 am)54 % (11:00 am)
Barometer30.09 in30.16 in (11:00 am)30.04 in (3:00 pm)
Wind Speed5.7 mph11.2 mph (5:00 pm)
Weather ElementAverage
Visibility6 mi
Wind DirectionE (92.7 °)

Weather ElementTotal
Precipitation---
Cooling Degree Days4 (Base 65)
Growing Degree Days19 (Base 50)
Averaged from 30 records on January 31, 2013
WEATHER CONDITIONS BREAKOUT
WIND DIRECTION BREAKOUT
WEATHER BY HOUR - JANUARY 31, 2013
[ °C ]   °F
Local TimeTemperatureDewpointHumidityBarometerVisibilityWind DirectionWind SpeedGust SpeedPrecipitationEventsConditions
1:00 AM62.6 °F62.6 °F100 %30.09 in1.9 miEast (90°)2.2 mphFogMist
2:00 AM67.0 °F63.0 °F83 %30.11 in11.0 miEast (90°)4.5 mphClear
2:00 AM62.6 °F62.6 °F100 %30.09 in1.9 miSE (130°)2.2 mphFogMist
3:00 AM60.8 °F60.8 °F100 %30.06 in1.9 miNE (50°)2.2 mphFogMist
4:00 AM62.6 °F62.6 °F100 %30.06 in1.1 miNE (40°)2.2 mphFogMist
5:00 AM65.0 °F62.0 °F87 %30.09 in7.0 miSSE (160°)2.2 mphClear
5:00 AM60.8 °F60.8 °F100 %30.06 in1.1 miEast (100°)2.2 mphFogMist
6:00 AM59.0 °F59.0 °F100 %30.06 in1.1 miCalmFogScattered Clouds
7:00 AM59.0 °F59.0 °F100 %30.09 in1.1 miESE (120°)2.2 mphFogScattered Clouds
8:00 AM66.0 °F64.0 °F89 %30.12 in11.0 miESE (110°)4.5 mphScattered Clouds
8:00 AM64.4 °F64.4 °F100 %30.09 in1.9 miESE (110°)4.5 mphMist
9:00 AM68.0 °F68.0 °F100 %30.09 in3.1 miESE (110°)4.5 mphMist
10:00 AM73.4 °F69.8 °F88 %30.12 in6.2 miSE (130°)6.7 mphPartly Cloudy
11:00 AM76.0 °F63.0 °F54 %30.16 in16.0 miSE (140°)6.7 mphScattered Clouds
11:00 AM77.0 °F64.4 °F65 %30.15 in6.2 miSSE (160°)6.7 mphScattered Clouds
12:00 PM78.8 °F62.6 °F57 %30.12 in6.2 miSSE (150°)6.7 mphScattered Clouds
1:00 PM78.8 °F62.6 °F57 %30.09 in6.2 miESE (110°)8.9 mphMostly Cloudy
2:00 PM79.0 °F66.0 °F55 %30.07 in17.0 miNE (40°)8.9 mphScattered Clouds
2:00 PM78.8 °F62.6 °F57 %30.06 in6.2 miESE (120°)6.7 mphMostly Cloudy
3:00 PM75.2 °F68.0 °F78 %30.04 in6.2 miNNE (30°)6.7 mphMostly Cloudy
4:00 PM77.0 °F68.0 °F74 %30.04 in6.2 miNE (40°)8.9 mphMostly Cloudy
5:00 PM74.0 °F66.0 °F68 %30.07 in14.0 miENE (70°)11.2 mphPartly Cloudy
5:00 PM75.2 °F66.2 °F73 %30.04 in6.2 miENE (70°)11.2 mphMostly Cloudy
6:00 PM75.2 °F64.4 °F69 %30.06 in6.2 miEast (100°)11.2 mphMostly Cloudy
7:00 PM71.6 °F68.0 °F88 %30.06 in6.2 miEast (80°)11.2 mphScattered Clouds
8:00 PM70.0 °F66.0 °F83 %30.11 in9.0 miESE (110°)11.2 mphMostly Cloudy
8:00 PM69.8 °F69.8 °F100 %30.09 in4.3 miESE (110°)6.7 mphMostly Cloudy
10:00 PM68.0 °F68.0 °F100 %30.09 in2.2 miEast (100°)2.2 mphMostly Cloudy
11:00 PM69.0 °F66.0 °F86 %30.12 in9.0 miESE (110°)6.7 mphMostly Cloudy
11:00 PM68.0 °F68.0 °F100 %30.09 in1.9 miCalmFogScattered Clouds
Hourly data recorded from ZJHK, located miles away from Haikou, China







STORIES FROM OUR PARTNERS